Location: Ahausen
(50.4985°N, 8.2722°E)
Time: 03:07:26
(UTC+00:00)

Meteor 2-5 Rocket - Pass Details

Date: 18 September 2020
Orbit: 833 x 912 km, 81.2° (Epoch: 22 October)

Event Time Altitude Azimuth Distance (km) Brightness Sun altitude
Rises 20:20:34 0° 344° (NNW) 3,413 7.7 -25.5°
Reaches altitude 10° 20:23:01 10° 340° (NNW) 2,482 6.9 -25.8°
Maximum altitude 20:28:28 54° 265° (W) 1,044 4.3 -26.4°
Enters shadow 20:30:31 36° 209° (SSW) 1,350 4.6 -26.7°
